Wind_Speed
62 61 64 61 57 57 56 52 48 51 51 49 47 47 44 40 37 35 33 32 31 28 25 23 20 19 16 15 16 16 17 17
73 68 66 68 62 60 59 58 56 55 53 52 51 48 47 42 39 36 36 35 35 33 30 27 23 22 21 19 18 16 14 14
80 76 72 72 70 67 60 60 60 60 60 57 58 54 55 51 49 46 43 40 39 37 35 31 28 26 25 24 20 19 19 14
82 79 77 76 75 73 67 63 61 62 61 62 60 60 60 54 54 50 45 41 41 41 39 38 35 29 28 29 27 23 23 20
69 74 75 78 77 76 73 67 66 60 64 64 64 63 61 59 55 53 47 46 44 42 42 43 41 35 32 31 31 29 27 23
62 67 70 74 75 76 76 73 67 68 63 65 65 65 63 63 60 59 55 52 50 47 42 44 46 42 36 35 34 34 31 27
62 64 68 69 71 70 72 75 75 71 71 64 65 65 65 64 61 62 58 56 53 49 45 46 48 46 40 39 36 38 36 32
52 64 65 70 68 67 67 69 75 76 74 73 65 65 65 67 65 65 65 62 59 54 50 47 44 43 41 42 41 38 40 38
43 50 68 69 73 70 67 66 70 70 74 76 73 67 65 67 67 68 69 66 63 59 56 53 50 48 47 45 44 42 42 43
29 36 42 74 71 75 74 69 70 70 70 74 78 71 68 65 69 70 71 73 67 65 62 57 54 51 50 49 47 46 45 45
22 31 33 34 57 75 78 77 73 70 70 72 75 75 72 69 67 69 71 77 75 71 68 63 58 56 55 54 53 50 50 48
15 13 22 31 37 36 61 85 78 76 73 75 73 76 76 75 73 71 71 74 75 78 74 71 66 63 60 57 57 55 53 50
36 25 22 22 24 33 33 49 69 89 83 81 80 77 78 79 78 76 76 74 78 75 81 77 73 69 65 62 59 58 55 51
40 41 42 35 31 29 29 36 41 44 61 92 93 86 83 82 79 79 80 81 79 72 65 82 77 74 70 64 62 60 60 53
29 33 40 43 45 43 37 36 39 45 45 46 70 89 90 89 87 84 83 84 83 84 82 79 81 77 74 71 66 65 64 59
26 25 28 32 36 43 49 43 39 39 44 50 51 57 86 90 95 92 89 89 88 87 85 87 89 74 57 70 70 68 69 64
22 26 26 28 30 34 38 43 52 48 47 46 51 56 63 91 94 96 94 92 94 90 90 89 87 76 89 72 70 72 72 70
22 22 26 26 25 23 21 24 36 47 58 57 58 58 62 70 95 98 100 99 96 98 93 90 93 84 94 63 75 80 75 75
28 25 26 26 26 26 26 24 22 29 38 46 49 52 57 61 71 95 101 104 100 100 95 90 81 85 85 90 85 87 85 79
Wind_Direction
239 237 241 246 242 236 224 226 225 231 230 228 226 227 230 232 234 237 243 250 257 259 256 258 258 258 252 244 238 240 251 260
235 237 237 241 243 239 236 228 222 225 229 231 233 230 229 237 238 243 244 243 248 255 258 255 257 260 258 251 251 247 246 248
231 232 234 236 239 242 237 235 230 227 226 224 224 227 230 224 230 233 236 237 242 247 255 258 252 255 257 259 255 253 248 242
229 229 230 233 235 237 240 238 236 230 229 229 225 227 228 232 229 228 233 240 237 240 247 255 256 249 253 255 257 252 253 247
231 231 233 233 232 234 236 236 238 236 232 229 231 228 230 230 230 227 230 235 240 241 241 245 253 252 248 252 254 258 251 253
234 229 230 233 234 234 234 236 234 240 237 232 230 232 230 234 233 224 224 230 234 235 240 243 246 252 248 250 250 255 258 253
237 234 228 230 233 231 233 233 235 236 241 237 233 228 232 232 235 230 224 226 231 234 234 237 244 247 246 250 251 250 253 255
244 236 234 227 231 234 229 229 231 233 237 239 236 234 231 232 234 233 228 227 229 230 235 238 242 247 246 244 248 250 252 254
250 243 233 234 228 231 233 230 228 232 233 237 238 236 233 231 232 235 234 231 232 233 230 231 236 241 242 239 243 247 248 252
258 250 247 234 238 229 230 233 230 230 231 235 238 235 233 231 233 234 235 235 231 232 235 235 232 235 235 234 234 241 245 248
255 260 253 247 240 238 235 232 236 233 229 230 234 237 232 230 229 234 235 234 231 229 233 236 235 236 234 232 229 233 239 243
267 265 258 253 249 247 242 237 236 235 228 230 229 234 238 230 228 227 235 238 235 230 229 232 232 234 238 232 232 233 237 239
276 272 266 267 265 254 256 241 239 236 232 230 230 232 234 238 231 229 230 234 239 235 230 228 231 232 234 235 233 236 238 236
269 270 270 270 268 266 259 250 244 241 243 237 237 236 234 234 237 231 231 233 235 237 240 231 228 230 233 235 235 236 237 235
274 270 267 268 265 265 260 256 251 250 254 252 241 235 234 233 236 237 229 232 235 237 239 233 231 231 230 233 232 235 237 236
289 280 278 270 266 264 259 251 254 254 254 251 251 244 236 236 236 237 236 231 233 235 237 242 244 237 232 218 228 231 235 235
295 284 282 279 277 268 264 263 259 255 249 250 254 251 243 236 234 235 237 236 233 235 233 236 241 245 243 243 225 231 233 236
301 294 275 276 283 286 284 280 266 261 261 257 257 258 253 243 234 233 237 238 237 236 236 236 239 240 243 234 230 232 234 236
291 298 277 281 287 292 295 292 284 267 254 253 265 263 259 252 240 234 235 238 238 239 238 239 242 244 243 245 251 232 228 233
Height
5778 5780 5780 5788 5797 5805 5808 5813 5817 5822 5827 5831 5834 5841 5847 5851 5855 5859 5862 5865 5868 5871 5873 5873 5875 5876 5877 5877 5878 5879 5881 5882
5766 5767 5771 5773 5781 5791 5799 5802 5805 5807 5815 5823 5830 5834 5841 5846 5850 5854 5856 5859 5862 5865 5869 5871 5872 5873 5873 5873 5874 5876 5877 5879
5747 5754 5758 5761 5767 5773 5784 5791 5797 5798 5801 5807 5813 5822 5829 5834 5838 5841 5847 5850 5854 5858 5862 5866 5868 5870 5870 5870 5871 5872 5872 5875
5723 5735 5743 5747 5752 5759 5768 5777 5784 5791 5795 5799 5803 5809 5814 5820 5827 5833 5840 5846 5848 5850 5855 5857 5861 5865 5867 5866 5867 5868 5869 5870
5703 5714 5722 5729 5738 5745 5751 5761 5767 5777 5784 5789 5794 5800 5806 5813 5819 5827 5833 5836 5840 5844 5846 5848 5852 5858 5861 5863 5862 5863 5864 5866
5691 5698 5704 5710 5719 5731 5738 5743 5755 5760 5770 5777 5783 5788 5794 5800 5808 5811 5817 5823 5829 5833 5838 5841 5843 5849 5854 5856 5857 5858 5860 5860
5677 5683 5690 5697 5702 5713 5723 5731 5736 5747 5751 5761 5769 5777 5782 5787 5795 5802 5805 5810 5816 5823 5827 5830 5835 5839 5844 5849 5851 5851 5853 5854
5665 5671 5677 5685 5690 5696 5707 5716 5723 5729 5736 5743 5753 5762 5769 5776 5783 5789 5794 5798 5803 5809 5816 5821 5826 5831 5836 5839 5842 5845 5846 5847
5653 5656 5662 5668 5676 5684 5690 5698 5708 5714 5721 5727 5735 5746 5754 5761 5768 5776 5783 5789 5794 5799 5802 5806 5813 5818 5822 5827 5832 5836 5837 5839
5646 5647 5651 5656 5661 5668 5676 5682 5690 5698 5705 5713 5718 5729 5738 5746 5753 5760 5767 5776 5783 5786 5791 5796 5798 5803 5807 5812 5818 5823 5827 5831
5641 5641 5642 5645 5649 5656 5661 5667 5674 5682 5689 5697 5703 5710 5720 5729 5737 5744 5750 5757 5765 5772 5777 5783 5788 5790 5793 5796 5803 5808 5812 5818
5636 5636 5636 5638 5641 5643 5646 5651 5658 5667 5673 5679 5687 5694 5700 5709 5718 5727 5733 5739 5747 5753 5761 5768 5772 5776 5780 5784 5789 5794 5798 5807
5630 5629 5629 5631 5632 5633 5634 5637 5642 5649 5656 5662 5669 5677 5683 5689 5700 5709 5717 5722 5727 5734 5743 5749 5756 5762 5766 5769 5776 5782 5786 5793
5623 5622 5622 5622 5624 5624 5624 5626 5629 5633 5638 5645 5651 5658 5666 5670 5679 5689 5698 5705 5710 5717 5724 5732 5739 5746 5754 5758 5762 5768 5772 5778
5613 5612 5611 5612 5614 5615 5617 5618 5619 5620 5624 5628 5632 5637 5646 5653 5659 5666 5676 5684 5692 5699 5706 5709 5718 5727 5735 5744 5748 5752 5757 5763
5605 5603 5601 5601 5602 5603 5606 5608 5608 5609 5610 5613 5617 5620 5626 5635 5641 5646 5655 5664 5671 5680 5691 5691 5688 5701 5696 5706 5728 5738 5741 5747
5599 5597 5596 5594 5592 5592 5592 5594 5596 5597 5599 5601 5601 5604 5607 5613 5621 5627 5633 5642 5650 5658 5669 5679 5683 5692 5692 5699 5708 5720 5725 5731
5594 5592 5590 5587 5585 5584 5584 5584 5584 5584 5585 5587 5588 5589 5590 5593 5600 5608 5614 5620 5629 5636 5647 5659 5669 5675 5678 5686 5695 5701 5709 5715
5589 5587 5583 5580 5579 5577 5576 5575 5575 5573 5571 5574 5575 5573 5571 5575 5580 5588 5595 5599 5608 5615 5630 5639 5648 5656 5667 5672 5678 5686 5690 5699